Location: Unspecified
(42.1900°N, 71.3291°W)
Time: 20:20:16
(UTC-04:00)

CZ-3 Stage 3 - Visible Passes

Search period start: 25 April 2017 00:00
Search period end: 05 May 2017 00:00
Orbit: 397 x 34802 km, 30.7° (Epoch: 24 April)

Date Brightness Start Highest point End Pass type
(mag) Time Alt. Az. Time Alt. Az. Time Alt. Az.
25 Apr 7.8 19:05:30 10° SW 19:47:08 69° SSE 04:24:08 10° S visible
26 Apr 7.0 15:33:51 10° SSE 22:17:41 34° ESE 00:30:54 10° ESE visible
27 Apr 9.6 03:12:11 10° WNW 04:09:48 14° WNW 05:35:16 10° WNW visible
27 Apr 8.6 22:40:22 10° W 00:32:20 56° WSW 06:56:55 10° WSW visible
28 Apr 7.9 18:56:17 10° SW 19:36:38 69° SSE 04:14:22 10° S visible
29 Apr 7.0 15:24:22 10° SSE 22:07:44 33° ESE 00:21:00 10° ESE visible
30 Apr 9.6 03:02:26 10° WNW 03:59:02 14° WNW 05:22:49 10° WNW visible
30 Apr 8.7 22:31:04 10° W 00:21:29 56° WSW 06:43:30 10° WSW visible
01 May 7.9 18:47:01 10° SW 19:26:12 69° SSE 04:04:31 10° S visible
02 May 6.9 15:14:52 10° SSE 21:57:38 33° ESE 00:11:01 10° SE visible
03 May 9.6 02:52:40 10° WNW 03:48:14 14° WNW 05:10:14 10° WNW visible
03 May 8.7 22:21:44 10° W 00:10:34 56° WSW 06:29:58 10° WSW visible
